Bodensee (Kressbronn): 6,7°C  -  Teich der Wetterzentrale Bad Schussenried: 6,1°C |  Schneehöhe Kreuzthal-Steinberg (930 m ü. NN): 8 cm   
01.04.2020Höhe
ü. NN
ZeitTemperatur (°C)Nieder-
schlag
Luft-
feuchte
Luft-
druck
Wind
StationaktuellMinimumMaximumaktuellMaximum
Aldingen654 m04:11-2,2-2,6 (07:35)-0,3 (16:02)0,0 l/m²73%1024,11,9 km/h (1 Bft) S-SW29,6 km/h (5 Bft) W (14:48)
Allmendingen541 m04:10-5,2-5,2 (07:35)-2,1 (15:10)0,0 l/m²85%1023,91,6 km/h (1 Bft) O-NO35,4 km/h (5 Bft) O (15:35)
Altshausen574 m04:10-2,6-2,6 (04:07)-1,1 (00:16)0,0 l/m²63%1021,76,4 km/h (2 Bft) N-NO8,0 km/h (2 Bft) N-NO (01:07)
Amstetten-Reutti663 m04:10-3,6-3,6 (05:15)-1,5 (16:55)0,0 l/m²82%1023,74,8 km/h (1 Bft) O48,3 km/h (6 Bft) W (15:55)
Amtzell-Grenis677 m04:10-2,8-3,1 (03:35)-1,4 (00:00)0,0 l/m²60%1023,66,4 km/h (2 Bft) W-SW6,4 km/h (2 Bft) W-SW (00:00)
Aulendorf570 m04:10-1,9-1,9 (03:56)-0,5 (00:00)0,0 l/m²68%1022,56,4 km/h (2 Bft) NO11,3 km/h (2 Bft) NO (02:20)
Bad Krozingen233 m04:10-0,7-0,7 (07:30)3,7 (16:05)0,0 l/m²70%1023,50,0 km/h (0 Bft) S-SW38,1 km/h (5 Bft) N (17:05)
Bad Saulgau595 m04:10-3,9-3,9 (06:45)-1,9 (15:00)0,0 l/m²82%1022,20,0 km/h (0 Bft) SO25,7 km/h (4 Bft) S (11:35)
Bad Saulgau, Mannsgrab588 m04:02-4,2-4,3 (03:44)-1,7 (00:17)0,0 l/m²85%1024,80,0 km/h (0 Bft) W-NW0,0 km/h (0 Bft) N (00:00)
Bad Saulgau-Lampertsweiler627 m04:10-1,5-1,6 (04:10)0,2 (00:00)0,0 l/m²71%1025,320,9 km/h (4 Bft) N-NW22,5 km/h (4 Bft) N-NW (01:15)
Bad Schussenried572 m04:10-3,1-3,1 (03:50)-1,1 (00:00)0,0 l/m²84%1021,90,0 km/h (0 Bft) NO9,7 km/h (2 Bft) NO (03:15)
Bergatreute615 m01:45-0,7-0,7 (00:45)0,0 (00:00)0,0 l/m²77%1023,512,9 km/h (3 Bft) NO16,1 km/h (3 Bft) O-NO (01:40)
Biberach (Riss), Boehringer533 m04:20-3,4-3,5 (04:20)-1,1 (00:30)0,0 l/m²86%1022,66,5 km/h (2 Bft) N-NW11,9 km/h (3 Bft) N (03:00)
Biberach (Riss), Realschule553 m04:15-3,1-3,1 (04:15)-0,3 (00:00)0,0 l/m²83%1024,46,4 km/h (2 Bft) NW11,3 km/h (2 Bft) N-NO (03:35)
Burgrieden523 m04:10-2,8-2,8 (04:05)-0,4 (00:00)0,0 l/m²78%1023,50,0 km/h (0 Bft) NO4,8 km/h (1 Bft) O-NO (02:50)
Burgrieden-Hochstetten510 m04:10-3,3-3,3 (06:50)-0,9 (15:40)0,0 l/m²86%1023,94,8 km/h (1 Bft) N-NW25,7 km/h (4 Bft) NO (12:55)
Ebersbach579 m04:10-1,8-1,8 (04:10)-0,1 (00:00)0,0 l/m²78%1023,86,4 km/h (2 Bft) N-NW16,1 km/h (3 Bft) NO (01:25)
Ebersbach-Boos605 m04:10-2,7-2,7 (03:25)-0,1 (00:00)0,0 l/m²82%1023,614,5 km/h (3 Bft) O-NO22,5 km/h (4 Bft) O (01:00)
Ebersbach-Menzenweiler661 m04:10-2,6-2,6 (04:10)-0,6 (00:00)0,0 l/m²82%1023,619,3 km/h (3 Bft) NO24,1 km/h (4 Bft) O-NO (01:05)
Ehingen535 m01:10-2,5-2,5 (01:10)-1,3 (00:05)0,0 l/m²70%1025,40,0 km/h (0 Bft) N-NO5,0 km/h (1 Bft) N-NO (00:15)
Erlenmoos645 m04:10-2,5-2,5 (04:05)-0,9 (00:00)0,0 l/m²84%1023,58,0 km/h (2 Bft) O-NO12,9 km/h (3 Bft) O-NO (01:35)
Ertingen569 m04:10-2,6-2,7 (02:50)-0,6 (00:00)0,0 l/m²82%1023,416,1 km/h (3 Bft) N16,1 km/h (3 Bft) N-NO (04:10)
Friedrichshafen405 m04:10-0,7-0,7 (06:45)0,9 (13:30)0,0 l/m²74%1023,19,7 km/h (2 Bft) N-NO27,4 km/h (4 Bft) NO (15:10)
Günzburg443 m04:10-3,4-3,4 (04:10)-1,1 (00:00)0,0 l/m²85%1021,70,0 km/h (0 Bft) NO0,0 km/h (0 Bft) NO (00:00)
Hochdorf-Appendorf537 m04:10-4,2-4,4 (03:40)-1,7 (00:15)0,0 l/m²64%1023,33,2 km/h (1 Bft) NO14,5 km/h (3 Bft) N-NW (03:20)
Höchsten802 m04:10-2,9-2,9 (03:45)-1,4 (00:00)0,0 l/m²78%1021,119,3 km/h (3 Bft) NO25,7 km/h (4 Bft) NO (02:45)
Horgenzell618 m04:00-1,9-1,9 (03:45)-0,6 (00:05)0,0 l/m²76%1021,214,5 km/h (3 Bft) N-NO19,3 km/h (3 Bft) N-NO (00:50)
Hoßkirch632 m04:10-4,5-4,5 (04:10)-1,0 (00:15)0,0 l/m²84%1022,43,2 km/h (1 Bft) O-NO14,5 km/h (3 Bft) O-NO (00:20)
Isny, Am Dreifingerbach695 m04:10-2,6-2,9 (02:30)0,1 (01:00)0,0 l/m²76%1022,20,0 km/h (0 Bft) W14,5 km/h (3 Bft) O-NO (01:05)
Isny, Weidachweg706 m04:10-1,1-1,3 (01:25)0,3 (00:25)0,0 l/m²62%1024,46,4 km/h (2 Bft) W-NW12,9 km/h (3 Bft) W (00:10)
Kappel-Grafenhausen163 m04:050,90,9 (06:55)3,3 (14:55)0,0 l/m²65%1021,61,6 km/h (1 Bft) N-NO30,6 km/h (5 Bft) N-NO (16:55)
Kißlegg-Staibshof709 m04:10-2,4-2,5 (03:50)-0,9 (00:00)0,0 l/m²81%1023,24,8 km/h (1 Bft) O-NO14,5 km/h (3 Bft) O (01:50)
Kressbronn398 m04:14-0,5-0,5 (04:10)1,4 (00:00)0,0 l/m²69%1021,78,0 km/h (2 Bft) NO22,5 km/h (4 Bft) NO (00:54)
Kreuzthal-Steinberg-Alpe930 m04:10-4,3-4,8 (04:00)-2,5 (00:00)0,0 l/m²90%1023,02,5 km/h (1 Bft) O-SO22,0 km/h (4 Bft) W-NW (00:10)
Kreuzthal-Steinberggipfel1040 m04:10-3,6-4,0 (02:20)-3,1 (00:10)-79%1023,015,1 km/h (3 Bft) O-NO37,1 km/h (5 Bft) O-SO (00:10)
Kristberg im Montafon (AT)1425 m04:10-5,6-5,9 (02:56)-5,3 (00:40)0,0 l/m²62%1026,20,0 km/h (0 Bft) O-SO10,1 km/h (2 Bft) NO (01:47)
Laupheim500 m04:10-2,7-2,8 (03:10)0,0 (00:00)0,0 l/m²80%1023,08,0 km/h (2 Bft) O-NO9,7 km/h (2 Bft) O-SO (00:20)
Leutkirch-Heggelbach670 m04:10-3,8-3,8 (04:10)-2,6 (00:30)0,0 l/m²83%1022,66,4 km/h (2 Bft) NO8,0 km/h (2 Bft) N-NO (03:30)
Lindau-Insel420 m04:10-0,5-0,5 (07:25)1,8 (14:55)0,0 l/m²69%1022,23,2 km/h (1 Bft) O-NO29,0 km/h (5 Bft) NO (17:05)
Lindau-Stadt412 m04:10-1,3-1,3 (07:25)1,2 (14:55)0,0 l/m²73%1022,43,2 km/h (1 Bft) NO33,8 km/h (5 Bft) N-NO (15:40)
Maierhöfen im Allgäu733 m04:10-2,4-2,4 (04:10)-1,2 (01:35)0,0 l/m²73%1022,711,3 km/h (2 Bft) O-SO25,7 km/h (4 Bft) O-SO (02:05)
Maselheim543 m04:10-4,4-4,4 (06:40)-2,3 (13:20)0,0 l/m²83%1023,90,0 km/h (0 Bft) S-SW24,1 km/h (4 Bft) O-NO (15:20)
Maselheim-Sulmingen548 m04:10-4,2-4,3 (06:40)-2,2 (15:15)0,0 l/m²87%1025,20,0 km/h (0 Bft) N20,9 km/h (4 Bft) N-NO (12:15)
Mietingen-Baltringen528 m04:10-3,9-4,1 (03:25)-1,3 (00:45)0,0 l/m²83%1025,30,0 km/h (0 Bft) O-NO4,8 km/h (1 Bft) N-NO (01:20)
Mindelheim-Apfeltrach620 m04:11-4,7-4,7 (04:11)-2,7 (00:00)0,0 l/m²86%1025,00,0 km/h (0 Bft) NO0,0 km/h (0 Bft) O-NO (00:00)
Mittelbiberach577 m04:11-3,2-3,2 (04:00)-1,0 (00:16)0,0 l/m²80%1024,60,0 km/h (0 Bft) NO11,2 km/h (2 Bft) NO (01:21)
Neresheim552 m04:00-5,5-5,5 (04:00)-2,0 (00:00)0,0 l/m²85%1022,70,0 km/h (0 Bft) O4,0 km/h (1 Bft) NO (01:00)
Neukirch570 m04:10-2,6-2,7 (05:25)-0,9 (14:35)0,0 l/m²80%1022,79,7 km/h (2 Bft) N-NO37,0 km/h (5 Bft) N-NO (11:55)
Ochsenhausen, Birkenstraße613 m04:10-4,4-4,4 (07:10)-2,2 (12:50)0,0 l/m²80%1024,00,0 km/h (0 Bft) SO3,2 km/h (1 Bft) S-SW (07:05)
Ochsenhausen, Unt. Wiesen575 m04:10-4,4-4,6 (03:50)-2,4 (00:00)0,0 l/m²85%1025,20,0 km/h (0 Bft) NO4,8 km/h (1 Bft) NO (00:00)
Opfenbach-Göritz561 m04:11-4,8-5,1 (03:56)-2,8 (00:00)0,0 l/m²78%1020,91,4 km/h (1 Bft) O-NO6,5 km/h (2 Bft) O-NO (00:18)
Ostrach619 m04:10-3,7-3,7 (03:45)-0,6 (00:00)0,0 l/m²86%1021,93,2 km/h (1 Bft) N-NO4,8 km/h (1 Bft) NO (00:00)
Ravensburg, Goethestraße428 m04:10-0,4-0,4 (04:00)1,3 (00:00)0,0 l/m²75%1022,46,4 km/h (2 Bft) O-NO14,5 km/h (3 Bft) O-NO (02:45)
Ravensburg-Wernsreute511 m04:10-2,1-2,1 (06:15)0,0 (15:50)0,0 l/m²78%1025,214,5 km/h (3 Bft) N-NO35,4 km/h (5 Bft) N-NO (11:45)
Reichenbach an der Fils343 m04:10-1,6-1,6 (04:10)1,0 (00:00)0,0 l/m²75%1026,13,2 km/h (1 Bft) O-SO11,3 km/h (2 Bft) O (01:20)
Riedlingen530 m04:10-2,4-2,4 (04:05)-1,0 (00:00)0,0 l/m²80%1023,70,0 km/h (0 Bft) NO0,0 km/h (0 Bft) N (00:00)
Rißtissen489 m04:10-2,2-2,2 (04:10)-0,2 (00:00)0,0 l/m²84%1021,21,6 km/h (1 Bft) O-NO8,0 km/h (2 Bft) O-NO (03:30)
Rottweil-Hausen681 m04:13-3,6-3,7 (03:28)-1,9 (00:00)0,0 l/m²80%1024,03,2 km/h (1 Bft) N-NO6,5 km/h (2 Bft) NO (02:14)
Schemmerhofen520 m04:002,72,7 (00:00)2,7 (00:00)0,0 l/m²55%1022,70,0 km/h (0 Bft) NO0,0 km/h (0 Bft) NO (00:00)
Silbertal im Montafon (AT)884 m04:10-3,7-3,7 (04:08)-1,6 (00:01)0,0 l/m²84%1026,00,0 km/h (0 Bft) O-NO0,0 km/h (0 Bft) O-NO (00:00)
Tettnang466 m04:14-0,6-0,6 (04:07)1,0 (00:00)0,0 l/m²70%1022,56,5 km/h (2 Bft) NW16,2 km/h (3 Bft) O-SO (01:07)
Tuttlingen648 m04:06-3,3-3,6 (03:56)-2,1 (00:01)0,0 l/m²73%1024,30,0 km/h (0 Bft) N-NO5,2 km/h (1 Bft) W-SW (03:26)
Tuttlingen, Möhringer-Vorstadt711 m04:10-4,1-4,1 (07:10)-2,4 (16:05)0,0 l/m²82%1023,44,8 km/h (1 Bft) O-NO25,7 km/h (4 Bft) N-NW (12:35)
Ummendorf547 m04:10-2,7-2,9 (03:50)-0,7 (00:10)0,0 l/m²65%1024,70,0 km/h (0 Bft) O16,1 km/h (3 Bft) O (01:05)
Ummendorf-Fischbach558 m04:10-4,1-4,3 (03:55)-1,9 (01:25)0,0 l/m²68%1024,30,0 km/h (0 Bft) O0,0 km/h (0 Bft) O (00:00)
Waldburg707 m04:10-2,1-2,1 (03:30)-0,8 (00:00)0,0 l/m²76%1022,29,7 km/h (2 Bft) N19,3 km/h (3 Bft) N (02:35)
Waltenhofen im Allgäu720 m04:10-6,3-6,3 (03:55)-2,2 (01:05)0,0 l/m²87%1023,30,0 km/h (0 Bft) N-NW17,7 km/h (3 Bft) N-NW (11:50)
Wangen, Südring548 m04:10-2,5-2,5 (04:07)-0,3 (00:00)0,0 l/m²80%1022,43,2 km/h (1 Bft) NO13,0 km/h (3 Bft) NO (01:25)
Warthausen-Birkenhard581 m04:13-3,3-3,4 (03:48)-1,2 (00:00)0,0 l/m²83%1023,611,9 km/h (3 Bft) NO11,9 km/h (3 Bft) N-NO (02:49)
Winterlingen785 m04:00-4,9-4,9 (04:00)-2,8 (01:00)0,0 l/m²82%1023,02,5 km/h (1 Bft) N-NO3,6 km/h (1 Bft) NO (00:55)

niederschlagsdatenbank | info | login - erfassung

Sollten Sie Interesse haben, an der Niederschlagsdatenbank teilzunehmen, finden Sie > hier < weitere Informationen.
Datum: . . Kalender
Anmerkung:0,0 = nicht messbarer Niederschlag
 -  = kein Niederschlag
 k  = kumulierter Niederschlag

< 19.12.201921.12.2019 >


Niederschlagswerte vom 20.12.2019    -    derzeit 112 Stationen

Die Niederschlagswerte des gewählten Tages lassen sich durch Klicken auf das Datum sortieren.
Die Angaben sind in l/m².

Station17.12.18.12.19.12.20.12.21.12.22.12.23.12.Bemerkung 20.12.
Aichstetten Ulmenstraße 7-17,0-7,2-5,0-
Regen
Aichstetten-Nestbaum Nestbaum-15,0---3,0-
Albbruck Furmisstr. 180,80,30,07,26,720,46,5
Ganzer Tag grau in grau +8°C Abends Regen u. Sturmböen aus West bis [weiterlesen...]
Regen Nieselregen Bodennebel Nebelnässe
Allmendingen Querqueviller Ring 6-0,1--3,0-10,0
Amstetten-Reutti Gassenäcker 13---1,82,62,68,8
Regen
Aulendorf Steinenbacher Weg 33-0,0-2,91,00,21,5
Regen
Aulendorf-Blönried Heuweg 32---2,51,0--
Bad Bellingen Rheinstraße 76-------
Bad Buchau Hanfweiher 1------6,5
Bad Saulgau Walserweg---2,02,01,02,0
Regen
Bad Saulgau-Hochberg Lampertsweiler Straße 12---3,01,0-2,0
Bad Schussenried Konradstraße---3,80,90,31,1
Regen Nieselregen
Bad Schussenried Lortzingstrasse---4,51,81,02,2
Regen
Bad Schussenried Klosterstraße---4,01,20,82,4
Regen
Bad Schussenried Theodor-Storm-Strasse---4,01,00,32,5
Regen
Bad Schussenried-Hopferbach Unterer Öschweg 16/1---4,01,5--
Regen
Bad Schussenried-Lufthütte Hauptgasse 17---4,01,5-2,0
Bad Schussenried-Sattenbeuren Ortsstraße 7-----5,02,5
Bad Schussenried-Schwaigfurt Schwaigfurt 2---4,02,0-2,5
Bad Waldsee-Haisterkirch Zur Spitzenkapelle 1---7,00,7-1,5
+0,7/+13,5°C, erneut märzenmäßig mild, ab 20:00 Regenwetter
Regen
Bad Wurzach-Seibranz Kimpflerhof 2 ---8,01,01,51,5
Baienfurt Untere Bergstrasse 7-------
Balzheim Hinterm Liess 19---7,01,01,03,0
Regen
Berg-Kleintobel Kleintobel---2,60,94,43,7
Regen
Biberach Amriswilstrasse---4,01,11,82,6
Regen
Biberach Strölinweg-0,0-----
Biberach Erlenweg---5,32,02,02,0
Regen
Biberach Neue Heimat 5-------
Biberach Mittelbergstraße 9---4,51,51,5-
Regen
Biberach Auf dem Lindele-------
Biberach-Bergerhausen Löcherstr.1---4,51,52,02,0
Bierstetten Schloßbühl 6---2,0-0,51,8
Regen
Blaubeuren-Pappelau Sotzenhauserstr.7---4,03,03,05,5
Bühlertal Wolfinstraße 16-5,0-13,03,55,013,0
Regen
Dettingen a. d. Iller Schleifweg 4-------
Dornstadt-Tomerdingen Maienweg 9---3,83,0-12,3
Dürnau Dorfäckerweg 5---2,52,52,02,5
Regen
Eberhardzell Lilienweg---6,71,40,42,1
Regen
Ebersbach-Roßwälden Appenwiesen-0,7-1,43,53,54,9
Fähig aufgelockert, dann Regen.

1,2 bis 8,8 Grad
Regen
Ehingen Rosenstraße0,00,00,02,11,81,73,6
Regen Nebelnässe
Ehingen Zanderstraße-------
Ehingen Schlaufenbühl--0,02,72,42,14,1
Regen
Ehingen Schillerstraße0,0--2,82,82,03,8
Regen Nieselregen
Ehingen-Herbertshofen Tobelweg 9-------
Eislingen Albstraße 1250,10,1-1,91,45,4-
Regen
Erbach-Bach Hauptstraße 24---3,52,22,04,0
Regen
Erlenmoos Haldenweg 15---6,91,72,63,0
Regen
Füramoos Hungersberg 1----6,20,72,1
Gutenzell Kleinser Berg 1---7,01,52,52,5
Nieselregen
Gutenzell-Hürbel Bei der Sägmühle 1---6,01,52,02,0
Regen
Herbertingen Drosselweg-0,00,02,02,52,52,0
Tagsüber viele Wolken-wenig Sonne bei Temperaturen im unteren Plusber [weiterlesen...]
Regen
Herbertingen Hirschstrasse---2,03,52,0-
Regen Nieselregen
Hochdorf-Schweinhausen Lindenweg 2---5,90,9-2,9
Hohentengen-Bremen Bremer Halde 4---3,01,0--
Regen
Horgenzell-Ringgenweiler Ringgenweiler 620---4,91,56,26,6
Hüttisheim Ulmer Weg 20,0-0,24,80,52,03,6
Regen
Illerkirchberg Mahdauweg 200,2--4,31,11,23,6
Regen
Illerrieden-Wangen Am Muckenberg 12---5,01,01,03,0
Immenstaad Stockwiesen 10-------
Inzigkofen Butzenweg 1---1,43,14,12,9
Regen
Isny Am Dreifingerbach 39---13,61,011,26,8
Regen
Kirchberg Rosenstr. 7---5,5---
Regen
Kreuzthal-Steinberg-Alpe Im Kreuzbachthal 85---14,11,211,812,7
Regen Schneeregen
Langenau Wasserstr. 54-1---5,0---
Langenenslingen Schattenweiler Str. 18--0,11,83,74,12,8
Regen Bodennebel Nebelnässe
Leutkirch Unterer Auenweg 25---8,30,51,61,8
Regen
Leutkirch Nachtigallenweg 28---10,51,53,04,0
Leutkirch-Adrazhofen Bergstraße 20---9,51,03,53,0
Regen
Merklingen Millergasse 9-------
Mietingen Seerosenweg 10-------
Mietingen-Walpertshofen Bussenweg 31-------
Mittelbiberach-Reute Rindenmooser Straße 2---4,81,92,04,0
Regen Nieselregen
Moosburg Käserweg 5---3,52,54,52,5
Zumeist bewölkt. Hochnebel. Am Abend einsetzender Regen.
Regen
Münsingen-Rietheim In der Lise 200,0--0,43,44,25,6
Regen
Neresheim Alfred-Delp-Straße 8---2,41,34,94,6
Regen Bodennebel
Oberdischingen Normannenstraße 7------10,7
Ochsenhausen Ehrensberger Weg 5---6,40,81,11,9
Regen
Öpfingen Hauptstraße 990,20,00,13,52,21,22,5
Regen Bodennebel Nebelnässe
Ostrach Uhlandweg---2,51,01,04,5
Regen
Pfaffenhofen-Kadeltshofen Mühlbachstraße 40,00,00,04,01,01,06,0
Pfullendorf Am Schweizersbild -------
Rangendingen Donaustraße 19---3,03,07,54,5
Ravensburg Bleicherstraße---4,41,25,0-
Ravensburg-Schmalegg St.-Magdalena-Ring 42---4,01,55,26,0
Ravensburg-Wernsreute Wernsreute 25---4,21,8-8,9
Regen
Ravensburg-Weststadt Karl-Erb-Ring 142---4,02,04,94,2
Regen
Regensburg Orleansstraße 3-----4,0-
Riedhausen Blütenweg 13-0,2-2,61,61,42,2
Temp. -0,6°C / +13,7°C, Windböen SW 30,6 km/h
Regen
Riedlingen Berliner Str. 41---1,53,03,03,0
Regen
Riedlingen-Neufra Panoramaweg---2,0-4,53,5
Regen Nieselregen Nebelnässe
Riedlingen-Neufra Riedlinger Strasse---1,04,05,02,0
Schelklingen-Gundershofen Schwarzer-Straße 14---1,54,04,55,0
Temp. zw. -4,6°C und +4,7°C. Morgens leicht bewölkt. Mittags viele [weiterlesen...]
Schemmerberg Drosselweg 9---6,52,51,83,8
Schwörstadt Schulstrasse 19-0,210,25,46,66,63,2
Regen
Seekirch Haldenberg 7---2,0-5,51,0
Regen
Sigmaringendorf Weingartenstraße 7---1,83,83,22,8
Regen
Tuttlingen Möhringerstraße 11-0,1-2,71,74,73,1
Regen
Ulm Eberhardtstraße 750,00,00,03,31,20,93,8
Regen
Ummendorf Tulpenweg-0,00,05,00,90,92,2
Regen Nieselregen
Ummendorf Friedrich-Schiller-Str.---0,05,02,03,0
Regen
Uttenweiler-Ahlen Seekircher Straße 8---2,3--4,2
Regen
Vöhringen (Schwarzwald) Drosselweg 3---2,04,013,011,0
Waldburg Kastanienweg11-8,0--1,58,0-
Wangen-Bergerhöhe Berg 2---11,81,86,03,8
Regen
Warthausen An der Schloßhalde ---3,00,34,21,3
Regen
Warthausen Schwabenwiesen ---4,22,22,22,1
Regen
Warthausen-Barabein Barabein 20---5,0-3,52,0
Regen
Weingarten Laurastraße-0,00,05,52,04,44,0
+ 4,0 ° C um 7.45 Uhr , 942 hPa, am 20.Dezember extremer Temperaturu [weiterlesen...]
Regen Nieselregen
Weingarten Hoyerstraße-------
Weingarten Marienstraße---4,01,04,04,0
Regen
Wolfegg-Veesers Veesers 1-------
Wolpertswende Aulendorfer Str. 17---2,70,40,61,8
Regen

Stillgelegte Niederschlagsstationen    -    derzeit 49 Stationen

StationLetzte Meldung17.12.18.12.19.12.20.12.21.12.22.12.23.12.Bemerkung 20.12.
Allmannsweiler Eggatsweilerstr.2802.09.2014-------
Aulendorf-Rugetsweiler Erikaweg 325.07.2013-------
Aulendorf-Zollenreute Imterstraße 1209.02.2019-------
Bad Saulgau Willi-Burth-Straße19.09.2011-------
Bad Saulgau Eichendorffweg28.03.2013-------
Bad Saulgau Seewattenstraße 12815.01.2014-------
Bad Saulgau-Lampertsweiler Valentinstr. 2618.02.2015-------
Bad Schussenried-Steinhausen Drosselgasse 4/126.09.2012-------
Bad Waldsee-Michelwinnanden Michelberg 531.12.2014-------
Bad Waldsee-Osterhofen Hochwaldgasse 406.03.2015-------
Bad Waldsee-Steinach Hofraingasse 1510.11.2013-------
Bad Wurzach-Dietmanns Postweg 519.01.2019-------
Bad Wurzach-Haidgau Wengener Straße 507.10.2012-------
Bad Wurzach-Ziegelbach Ziegelbach-Greut 507.11.2014-------
Bergatreute Bolanden 113.02.2012-------
Betzenweiler Offinger Straße 505.01.2017-------
Burgrieden Am Nonnenberg 328.10.2013-------
Burgrieden-Rot Schmiedgasse 518.09.2013-------
Eberhardzell Schillerstraße05.07.2010-------
Ehingen Am Elzengraben17.06.2016-------
Gammertingen Schillerstraße 2216.01.2016-------
Griesingen Blumenstraße 906.10.2015-------
Günzburg Erlenbadweg 34 1/231.12.2010-------
Hoßkirch Kirchstraße 805.01.2018-------
Ingoldingen-Grodt Ingoldinger Weg 1919.11.2016-------
Kisslegg Kirchmoosstraße02.05.2011-------
Krauchenwies-Hausen Rosenrain 123.11.2013-------
Kressbronn Irisstraße 410.03.2010-------
Leutkirch-Ottmannshofen Spitalriedstraße 527.07.2012-------
Leutkirch-Rotis Rotis 5/208.05.2016-------
Leutkirch-Wuchzenhofen Untere Kirchstraße 18/119.09.2016-------
Mietingen Hangweg 1530.12.2017-------
Mössingen-Bästenhardt Weissdornweg 721.07.2014-------
Ostrach Heiligenberger Straße19.08.2013-------
Pfullendorf Ringstraße 18.03.2012-------
Ravensburg Olgastraße30.10.2016-------
Seltmans Amselweg 2209.04.2013-------
Stuttgart-Bad Cannstatt Beuthener Str. 6703.02.2013-------
Stuttgart-Möhringen Glashütter Weg 1023.04.2017-------
Stuttgart-Rohr Hirschsprung 307.11.2012-------
Talheim Im Schecken 2121.08.2016-------
Tannheim Eggmannstr. 42 22.10.2017-------
Tettnang-Ramsbach Jahnstr. 24/126.03.2011-------
Tuttlingen-Möhringen Belchenstraße01.01.2015-------
Ummendorf Bergstraße23.10.2017-------
Vogt Mühlwies 1822.05.2015-------
Wangen-Atzenberg Keplerweg 324.02.2019-------
Weingarten Bischof-Sproll-Straße30.06.2011-------
Wilhelmsdorf Riedhauser Straße 28.10.2012-------
Wilhelmsdorf Seefeld20.08.2013-------
Wurmlingen An der Steig 3014.10.2016-------
Die Niederschlagswerte des gewählten Tages lassen sich durch Klicken auf das Datum sortieren.
Die Angaben sind in l/m².

Wetterbeobachtungen Legende:

  • Regen
  • Nieselregen
  • Schneeregen
  • Schnee
  • Graupel
  • Eiskörner
  • Hagel
  • Bodennebel
  • Gewitter
  • Nebelnässe
  • Schneegriesel

Grafische Darstellung der Tagesniederschläge vom 20.12.2019

< 19.12.201921.12.2019 >Monats- und Jahresniederschlag


 
wetterstationen
wetterstationen
- derzeit 83 Stationen
niederschlagsdatenbank
wetterstationen
- kartographische Darstellung
niederschlagsdatenbank
niederschlagsstationen
- derzeit 112 Stationen
niederschlagsdatenbank
niederschlagsstationen
- kartographische Darstellung
 
  treffpunkt & service
--- Anzeigen --------------------------------
zugriffe:
insgesamt: 46.623.015
aktueller monat: 204
heute: 204
momentan online: 6
 
 
monatshöchstwert: 653.625
vorheriger monat: 364.213
gestern: 13.565
tageshöchstwert: 57.073
 
wetterwarte süd
 
konradstraße 3
info@wetterwarte-sued.com
roland roth
 
88427 bad schussenried